Date String (YYYY-MM-DD hh:mm:ss) UTC,Instrument flags,absolute air pressure of the measurement (hPa),sample flow rate (lpm),inlet stack bypass flow (lpm),air temperature of the measurement (°C),ambient temperature measured by the external sensor (°C),aerosol sample conditioner tube jacket temperature (°C),OPC LED temperature (°C),internal box temperature (°C),relative humidity of the measurement (%),span deviation,mass concentration of particles derived from Lorenz-Mie calculation of OPC scattering (μg/m³),mass concentration of particles derived from Lorenz-Mie calculation of OPC scattering (μg/m³),mass concentration of particles derived from Lorenz-Mie calculation of OPC scattering (μg/m³)
DateTimeUTC,F1_M11,P_M11,Q1_M11,Q2_M11,T1_M11,T2_M11,T3_M11,T4_M11,T5_M11,U1_M11,ZSPAN_M11,X0_M11,X2_M11,X1_M11
2023-10-15 01:00:00,SystemResetWarning,0837.1,5.00,000.00,028.1,026.7,000.0,036.6,029.7,13.2,0001.9,0011.09,0005.36,0004.88
2023-10-15 01:01:00,SystemResetWarning,0837.2,5.00,000.00,028.1,026.7,000.0,036.6,029.7,13.3,0001.6,0011.07,0005.35,0004.88
2023-10-15 01:02:00,SystemResetWarning,0837.2,5.00,000.00,028.1,026.7,000.0,036.6,029.7,13.3,0001.5,0011.15,0005.37,0004.89
2023-10-15 01:03:00,SystemResetWarning,0837.2,5.01,000.00,028.1,026.7,000.0,036.6,029.7,13.2,0001.3,0011.46,0005.39,0004.89
2023-10-15 01:04:00,SystemResetWarning,0837.2,5.00,000.00,028.1,026.7,000.0,036.6,029.7,13.1,0001.4,0011.41,0005.41,0004.90
2023-10-15 01:05:00,SystemResetWarning,0837.2,5.00,000.00,028.1,026.7,000.0,036.6,029.7,13.1,0000.5,0011.45,0005.43,0004.89
2023-10-15 01:06:00,SystemResetWarning,0837.2,5.00,000.00,028.1,026.7,000.0,036.6,029.7,13.1,0000.0,0011.64,0005.42,0004.88
2023-10-15 01:07:00,SystemResetWarning,0837.3,5.00,000.00,028.1,026.7,000.0,036.6,029.7,13.1,0000.0,0011.33,0005.40,0004.88
2023-10-15 01:08:00,SystemResetWarning,0837.2,5.00,000.00,028.1,026.6,000.0,036.6,029.6,13.1,0000.0,0011.67,0005.36,0004.87
2023-10-15 01:09:00,SystemResetWarning,0837.2,5.00,000.00,028.1,026.6,000.0,036.6,029.6,13.1,0000.0,0011.72,0005.35,0004.87
2023-10-15 01:10:00,SystemResetWarning,0837.2,4.99,000.00,028.1,026.6,000.0,036.6,029.6,13.2,0000.0,0011.26,0005.30,0004.84
2023-10-15 01:11:00,SystemResetWarning,0837.2,5.00,000.00,028.1,026.6,000.0,036.6,029.6,13.2,0000.0,0010.94,0005.28,0004.82
2023-10-15 01:12:00,SystemResetWarning,0837.2,5.00,000.00,028.1,026.5,000.0,036.6,029.6,13.2,0000.0,0011.34,0005.25,0004.80
2023-10-15 01:13:00,SystemResetWarning,0837.2,5.00,000.00,028.0,026.5,000.0,036.6,029.6,13.2,-000.2,0011.60,0005.26,0004.79
2023-10-15 01:14:00,SystemResetWarning,0837.2,5.00,000.00,028.0,026.5,000.0,036.6,029.6,13.2,-001.0,0011.47,0005.26,0004.80
2023-10-15 01:15:00,SystemResetWarning,0837.2,5.01,000.00,028.0,026.5,000.0,036.5,029.6,13.2,-001.4,0011.20,0005.26,0004.81
2023-10-15 01:16:00,SystemResetWarning,0837.2,5.00,000.00,028.0,026.5,000.0,036.5,029.6,13.2,-001.7,0011.04,0005.26,0004.82
2023-10-15 01:17:00,SystemResetWarning,0837.2,5.01,000.00,028.0,026.5,000.0,036.5,029.6,13.2,-001.6,0010.24,0005.27,0004.86
2023-10-15 01:18:00,SystemResetWarning,0837.2,5.00,000.00,028.0,026.6,000.0,036.5,029.6,13.2,-001.2,0010.22,0005.26,0004.86
2023-10-15 01:19:00,SystemResetWarning,0837.2,5.00,000.00,028.0,026.6,000.0,036.5,029.6,13.1,-001.3,0010.21,0005.29,0004.87
2023-10-15 01:20:00,SystemResetWarning,0837.2,5.00,000.00,028.0,026.6,000.0,036.5,029.7,13.1,-001.1,0010.44,0005.29,0004.88
2023-10-15 01:21:00,SystemResetWarning,0837.2,5.00,000.00,028.0,026.6,000.0,036.5,029.6,13.1,-000.0,0010.42,0005.30,0004.89
2023-10-15 01:22:00,SystemResetWarning,0837.2,4.99,000.00,028.0,026.6,000.0,036.5,029.6,13.1,0001.1,0010.02,0005.30,0004.91
2023-10-15 01:23:00,SystemResetWarning,0837.2,5.00,000.00,028.0,026.6,000.0,036.5,029.6,13.1,0000.6,0009.40,0005.31,0004.92
2023-10-15 01:24:00,SystemResetWarning,0837.2,5.00,000.00,028.0,026.6,000.0,036.5,029.6,13.1,0000.0,0009.07,0005.31,0004.93
2023-10-15 01:25:00,SystemResetWarning,0837.2,4.99,000.00,028.0,026.5,000.0,036.5,029.5,13.1,0000.0,0009.10,0005.33,0004.92
2023-10-15 01:26:00,SystemResetWarning,0837.2,5.02,000.00,028.0,026.5,000.0,036.5,029.5,13.2,0000.0,0009.50,0005.31,0004.92
2023-10-15 01:27:00,SystemResetWarning,0837.2,5.00,000.00,028.0,026.4,000.0,036.5,029.5,13.2,0000.0,0009.45,0005.29,0004.92
2023-10-15 01:28:00,SystemResetWarning,0837.2,4.99,000.00,027.9,026.4,000.0,036.5,029.5,13.2,0002.6,0009.74,0005.28,0004.90
2023-10-15 01:29:00,SystemResetWarning,0837.2,4.99,000.00,027.9,026.4,000.0,036.5,029.4,13.2,0000.1,0010.09,0005.29,0004.89
2023-10-15 01:30:00,SystemResetWarning,0837.2,5.00,000.00,027.9,026.3,000.0,036.5,029.4,13.3,0000.0,0010.61,0005.29,0004.90
2023-10-15 01:31:00,SystemResetWarning,0837.2,4.99,000.00,027.9,026.3,000.0,036.4,029.4,13.3,0000.1,0010.35,0005.27,0004.91
2023-10-15 01:32:00,SystemResetWarning,0837.2,5.00,000.00,027.9,026.3,000.0,036.4,029.4,13.3,0002.0,0011.46,0005.28,0004.91
2023-10-15 01:33:00,SystemResetWarning,0837.2,5.00,000.00,027.9,026.3,000.0,036.4,029.4,13.3,0002.0,0011.43,0005.25,0004.90
2023-10-15 01:34:00,SystemResetWarning,0837.2,5.00,000.00,027.9,026.3,000.0,036.4,029.4,13.3,0001.7,0011.47,0005.25,0004.90
2023-10-15 01:35:00,SystemResetWarning,0837.2,5.00,000.00,027.8,026.3,000.0,036.4,029.4,13.3,0001.7,0011.47,0005.25,0004.89
2023-10-15 01:36:00,SystemResetWarning,0837.2,5.01,000.00,027.8,026.3,000.0,036.4,029.4,13.3,0001.5,0011.43,0005.24,0004.91
2023-10-15 01:37:00,SystemResetWarning,0837.2,5.01,000.00,027.8,026.4,000.0,036.4,029.4,13.3,0001.3,0011.18,0005.26,0004.92
2023-10-15 01:38:00,SystemResetWarning,0837.2,5.00,000.00,027.8,026.4,000.0,036.4,029.4,13.3,0001.7,0011.30,0005.31,0004.92
2023-10-15 01:39:00,SystemResetWarning,0837.2,5.00,000.00,027.8,026.4,000.0,036.4,029.5,13.3,0001.4,0011.87,0005.40,0004.91
2023-10-15 01:40:00,SystemResetWarning,0837.2,5.00,000.00,027.9,026.4,000.0,036.4,029.5,13.3,0001.6,0012.10,0005.40,0004.90
2023-10-15 01:41:00,SystemResetWarning,0837.2,5.00,000.00,027.9,026.4,000.0,036.4,029.5,13.3,0001.4,0011.40,0005.46,0004.87
2023-10-15 01:42:00,SystemResetWarning,0837.2,4.99,000.00,027.9,026.4,000.0,036.4,029.5,13.3,0001.1,0011.40,0005.50,0004.85
2023-10-15 01:43:00,SystemResetWarning,0837.2,5.00,000.00,027.9,026.4,000.0,036.4,029.5,13.3,0000.6,0010.51,0005.52,0004.85
2023-10-15 01:44:00,SystemResetWarning,0837.2,5.00,000.00,027.9,026.5,000.0,036.4,029.5,13.3,0001.2,0010.79,0005.53,0004.84
2023-10-15 01:45:00,SystemResetWarning,0837.2,4.99,000.00,027.9,026.5,000.0,036.3,029.5,13.3,0001.8,0011.11,0005.58,0004.85
2023-10-15 01:46:00,SystemResetWarning,0837.2,5.00,000.00,027.9,026.5,000.0,036.3,029.5,13.3,0001.5,0011.32,0005.61,0004.84
2023-10-15 01:47:00,SystemResetWarning,0837.2,5.00,000.00,027.9,026.5,000.0,036.4,029.5,13.3,0001.7,0011.52,0005.63,0004.82
2023-10-15 01:48:00,SystemResetWarning,0837.2,5.00,000.00,027.9,026.5,000.0,036.4,029.5,13.3,0001.7,0011.72,0005.59,0004.80
2023-10-15 01:49:00,SystemResetWarning,0837.1,5.01,000.00,027.9,026.5,000.0,036.4,029.5,13.3,0001.7,0011.80,0005.57,0004.79
2023-10-15 01:50:00,SystemResetWarning,0837.1,5.00,000.00,027.9,026.5,000.0,036.3,029.5,13.3,0002.0,0011.40,0005.51,0004.78
2023-10-15 01:51:00,SystemResetWarning,0837.0,5.00,000.00,027.9,026.5,000.0,036.4,029.5,13.3,0002.0,0011.80,0005.47,0004.77
2023-10-15 01:52:00,SystemResetWarning,0837.0,4.99,000.00,027.9,026.5,000.0,036.3,029.5,13.3,0001.7,0012.19,0005.42,0004.77
2023-10-15 01:53:00,SystemResetWarning,0837.0,4.99,000.00,027.9,026.5,000.0,036.3,029.5,13.3,0000.7,0012.04,0005.42,0004.78
2023-10-15 01:54:00,SystemResetWarning,0837.1,5.01,000.00,027.9,026.5,000.0,036.3,029.5,13.3,0000.8,0011.77,0005.39,0004.79
2023-10-15 01:55:00,SystemResetWarning,0837.2,5.01,000.00,027.9,026.5,000.0,036.4,029.6,13.3,0000.3,0012.75,0005.44,0004.79
2023-10-15 01:56:00,SystemResetWarning,0837.2,5.01,000.00,027.9,026.5,000.0,036.4,029.5,13.3,-000.3,0013.44,0005.41,0004.76
2023-10-15 01:57:00,SystemResetWarning,0837.2,4.99,000.00,027.9,026.5,000.0,036.4,029.5,13.3,-000.1,0013.27,0005.37,0004.76
2023-10-15 01:58:00,SystemResetWarning,0837.2,4.99,000.00,027.9,026.4,000.0,036.4,029.5,13.3,-000.1,0013.33,0005.32,0004.74
2023-10-15 01:59:00,SystemResetWarning,0837.3,4.99,000.00,027.9,026.4,000.0,036.4,029.5,13.3,-000.3,0013.31,0005.32,0004.74
